Location: Kaarina
(60.4167°N, 22.4167°E)
Time: 13:56:10
(UTC+03:00)

H-2A R/B - Pass Details

Date: 24 August 2019
Orbit: 734 x 837 km, 98.3° (Epoch: 22 September)

Event Time Altitude Azimuth Distance (km) Brightness Sun altitude
Rises 21:41:06 0° 178° (S) 3,197 4.9 -5.3°
Reaches altitude 10° 21:43:28 10° 183° (S) 2,265 4.2 -5.5°
Maximum altitude 21:48:18 51° 260° (W) 932 2.8 -6.0°
Drops below altitude 10° 21:53:07 10° 336° (NNW) 2,253 5.5 -6.5°
Sets 21:55:29 0° 342° (NNW) 3,180 6.2 -6.7°
